カタログに戻る

NOAA 16 DEB

運用中SSO
NORAD 41077·DEBRIS·🇺🇸 United States

打ち上げ Sep 21, 2000 から Vandenberg Space Force Base

Loading…

次のパス (今後24時間)

TLE

最新Source: Space-Track

元期: Sep 14, 2026, 06:49 UTC

1 41077U 00055AL  26257.28412169  .00000256  00000-0  21471-3 0  9995
2 41077  98.8078 264.8035 0111892 301.4515  57.5747 13.93983500548654

AllMySatでNOAA 16 DEBをリアルタイム追跡

Download on the App Store